Regional Weather Roundup
Issued by NWS

Home | Current Version | Previous Version | Text Only | Print | Product List | Glossary On
Versions: 1 2 3 4 5 6 7 8 9 10 11 12 13 14 15 16 17 18 19 20 21 22 23 24 25 26 27 28 29 30 31 32 33 34 35 36 37 38 39 40 41 42 43 44 45 46 47 48 49 50
000
ASUS43 KTOP 182008
RWRKS

WEATHER ROUNDUP FOR KANSAS
NATIONAL WEATHER SERVICE GOODLAND KS
200 PM CST THU DEC 18 2014

NOTE:  "FAIR" INDICATES FEW OR NO CLOUDS BELOW 12,000 FEET WITH NO
SIGNIFICANT WEATHER AND/OR OBSTRUCTIONS TO VISIBILITY.

KSZ001>006-013>018-027>032-041>047-182100-
NORTHWEST KANSAS

CITY           SKY/WX    TMP DP  RH WIND       PRES   REMARKS
GOODLAND       SUNNY     38  32  79 W7        30.05F
HAYS           CLOUDY    32  21  64 CALM      30.14F
HILL CITY      CLOUDY    31  27  85 W5        30.14F
RUSSELL        CLOUDY    31  28  89 CALM      30.14F
$$

KSZ061>065-074>080-084>089-182100-
SOUTHWEST KANSAS

CITY           SKY/WX    TMP DP  RH WIND       PRES   REMARKS
DODGE CITY     CLOUDY    34  29  82 N6        30.12F
ELKHART          N/A     40  29  65 E3          N/A
GARDEN CITY    CLOUDY    33  30  88 VRB3      30.10F
GREAT BEND     CLOUDY    30  25  80 CALM      30.16F
LIBERAL        CLOUDY    36  30  80 NE5       30.12F
PRATT          CLOUDY    34  32  93 N6        30.16S
$$

KSZ066>073-081>083-090>101-182100-
SOUTHEAST KANSAS

CITY           SKY/WX    TMP DP  RH WIND       PRES   REMARKS
CHANUTE        FOG       34  34 100 VRB7      30.18S VSB 1/2
COFFEYVILLE    CLOUDY    37  36  96 NW3       30.17F
HUTCHINSON     CLOUDY    34  29  82 NW7       30.16F HAZE
MEDICINE LODGE   N/A     36  33  89 NW6       30.15F
NEWTON         CLOUDY    32  27  80 NW6       30.17S
PARSONS        CLOUDY    38  36  92 NW5       30.18F
WICHITA INTL   CLOUDY    35  30  82 NW7       30.16F
WICHITA JABRA  CLOUDY    33  31  92 NW5       30.16S
WICHITA MCCONL CLOUDY    34  32  93 N6        30.16F
WINFIELD       CLOUDY    36  35  96 N6        30.17F
$$

KSZ007>012-019>026-033>040-048>060-102>105-182100-
NORTHEAST KANSAS

CITY           SKY/WX    TMP DP  RH WIND       PRES   REMARKS
CONCORDIA      PTSUNNY   30  26  85 CALM      30.17F
EMPORIA        CLOUDY    32  30  92 N3        30.16F FOG
LAWRENCE       CLOUDY    33  29  85 NE3       30.20F FOG
MANHATTAN      CLOUDY    33  29  85 CALM      30.19F
MARYSVILLE     CLOUDY    32  28  86 CALM      30.19S
OLATHE IND     CLOUDY    33  30  88 NE3       30.18F FOG
OLATHE EXE     CLOUDY    33  30  88 E5        30.17F FOG
SALINA         CLOUDY    32  27  81 NW3       30.18F
TOPEKA BILLARD CLOUDY    34  30  85 CALM      30.20F FOG
TOPEKA FORBES  CLOUDY    33  29  85 N5        30.18F FOG
$$


USA.gov is the U.S. government's official web portal to all federal, state and local government web resources and services.